Volver al catálogo

STARLINK-31871

ActivoComunicacionesVLEO
NORAD 59673·PAYLOAD·🇺🇸 United States

Lanzado May 6, 2024 desde Cape Canaveral Space Force Station

Loading…

Próximos Pases (próximas 24 horas)

TLE

ActualizadoSource: CelesTrak SupGP

Época: Sep 14, 2026, 21:38 UTC

1 59673C 24084V   26257.90187500  .00053512  00000+0  19385-2 0  2570
2 59673  43.0004  53.1349 0001519 277.3289  11.4088 15.27546225    14

Sigue STARLINK-31871 en tiempo real con AllMySat

Download on the App Store